When you browse on this site, cookies collect data to enhance your experience and personalize the content and advertising you see.
Visit our Privacy Policy to learn more. By continuing to use the site, you agree to this use of cookies and data.
  • In Romania
  • List of Countries
  • For 7 days
  • Water Temperature
  • Weather Map
  • Weather Widgets
  • user-avatar
    Login

    Hourly Weather Litin

    Today, 29 January, Wednesday

    Time Temperature Precipitation Wind Pressure Humidity
    00:00 0°C° 0 mm 3 mps 728 mmHg 91%
    01:00 0°C° 0 mm 3 mps 728 mmHg 91%
    02:00 -1°C° 0 mm 4 mps 727 mmHg 92%
    03:00 -1°C° 0 mm 4 mps 727 mmHg 92%
    04:00 -1°C° 0 mm 4 mps 726 mmHg 92%
    05:00 -1°C° 0 mm 4 mps 725 mmHg 92%
    06:00 -1°C° 0 mm 4 mps 725 mmHg 92%
    07:00 -1°C° 0 mm 5 mps 724 mmHg 92%
    08:00 -1°C° 0 mm 5 mps 724 mmHg 91%
    09:00 -1°C° 1 mm 5 mps 724 mmHg 93%
    10:00 -1°C° 1 mm 5 mps 724 mmHg 95%
    11:00 -1°C° 1 mm 5 mps 724 mmHg 97%
    12:00 -1°C° 0.3 mm 6 mps 725 mmHg 94%
    13:00 -1°C° 0.3 mm 6 mps 725 mmHg 91%
    14:00 -1°C° 0.3 mm 7 mps 725 mmHg 88%
    15:00 -1°C° 0 mm 6 mps 725 mmHg 86%
    16:00 -1°C° 0 mm 6 mps 726 mmHg 84%
    17:00 -1°C° 0 mm 5 mps 726 mmHg 82%
    18:00 -1°C° 0 mm 5 mps 726 mmHg 82%
    19:00 -2°C° 0 mm 5 mps 727 mmHg 83%
    20:00 -2°C° 0 mm 5 mps 727 mmHg 83%
    21:00 -2°C° 0 mm 5 mps 727 mmHg 85%
    22:00 -3°C° 0 mm 6 mps 727 mmHg 87%
    23:00 -3°C° 0 mm 6 mps 727 mmHg 90%

    Tomorrow, 30 January, Thursday

    Time Temperature Precipitation Wind Pressure Humidity
    00:00 -3°C° 0.2 mm 7 mps 727 mmHg 88%
    01:00 -3°C° 0.2 mm 7 mps 728 mmHg 86%
    02:00 -2°C° 0.2 mm 8 mps 728 mmHg 84%
    03:00 -2°C° 0.1 mm 8 mps 728 mmHg 85%
    04:00 -2°C° 0.1 mm 8 mps 728 mmHg 87%
    05:00 -2°C° 0.1 mm 8 mps 728 mmHg 88%
    06:00 -2°C° 0 mm 8 mps 728 mmHg 87%
    07:00 -2°C° 0 mm 7 mps 729 mmHg 86%
    08:00 -2°C° 0 mm 7 mps 729 mmHg 85%
    09:00 -2°C° 0 mm 7 mps 729 mmHg 83%
    10:00 -2°C° 0 mm 8 mps 729 mmHg 81%
    11:00 -1°C° 0 mm 8 mps 730 mmHg 79%
    12:00 -1°C° 0 mm 8 mps 730 mmHg 78%
    13:00 -1°C° 0 mm 8 mps 730 mmHg 78%
    14:00 -1°C° 0 mm 8 mps 730 mmHg 77%
    15:00 -1°C° 0.1 mm 8 mps 730 mmHg 83%
    16:00 -2°C° 0.1 mm 7 mps 731 mmHg 88%
    17:00 -2°C° 0.1 mm 7 mps 731 mmHg 94%
    18:00 -2°C° 0.1 mm 7 mps 731 mmHg 94%
    19:00 -2°C° 0.1 mm 7 mps 731 mmHg 93%
    20:00 -2°C° 0.1 mm 7 mps 732 mmHg 93%
    21:00 -3°C° 0 mm 6 mps 732 mmHg 90%
    22:00 -2°C° 0 mm 5 mps 732 mmHg 87%
    23:00 -2°C° 0 mm 5 mps 732 mmHg 84%

    Day after tomorrow, 31 January, Friday

    Time Temperature Precipitation Wind Pressure Humidity
    00:00 -3°C° 0 mm 4 mps 732 mmHg 84%
    01:00 -3°C° 0 mm 4 mps 732 mmHg 83%
    02:00 -3°C° 0 mm 4 mps 732 mmHg 83%
    03:00 -3°C° 0 mm 4 mps 731 mmHg 85%
    04:00 -2°C° 0 mm 5 mps 731 mmHg 87%
    05:00 -2°C° 0 mm 5 mps 731 mmHg 89%
    06:00 -2°C° 0.1 mm 5 mps 730 mmHg 91%
    07:00 -1°C° 0.1 mm 5 mps 730 mmHg 94%
    08:00 -1°C° 0.1 mm 5 mps 730 mmHg 96%
    09:00 -1°C° 0 mm 5 mps 729 mmHg 91%
    10:00 -1°C° 0 mm 5 mps 728 mmHg 87%
    11:00 0°C° 0 mm 5 mps 728 mmHg 82%
    12:00 0°C° 0.1 mm 5 mps 727 mmHg 82%
    13:00 0°C° 0.1 mm 5 mps 727 mmHg 83%
    14:00 0°C° 0.1 mm 5 mps 726 mmHg 83%
    15:00 0°C° 1.1 mm 5 mps 726 mmHg 88%
    16:00 -1°C° 1.1 mm 4 mps 725 mmHg 93%
    17:00 -1°C° 1.1 mm 4 mps 725 mmHg 98%
    18:00 0°C° 0.5 mm 3 mps 725 mmHg 98%
    19:00 +1°C° 0.5 mm 2 mps 726 mmHg 98%
    20:00 +2°C° 0.5 mm 1 mps 726 mmHg 98%
    21:00 +1°C° 0 mm 2 mps 727 mmHg 98%
    22:00 0°C° 0 mm 3 mps 727 mmHg 97%
    23:00 0°C° 0 mm 3 mps 728 mmHg 97%

    1 February, Saturday

    Time Temperature Precipitation Wind Pressure Humidity
    00:00 0°C° 0 mm 3 mps 729 mmHg 97%
    01:00 -1°C° 0 mm 4 mps 729 mmHg 96%
    02:00 -1°C° 0 mm 4 mps 730 mmHg 95%
    03:00 -1°C° 0 mm 4 mps 731 mmHg 96%
    04:00 -1°C° 0 mm 4 mps 731 mmHg 97%
    05:00 -1°C° 0 mm 4 mps 731 mmHg 97%
    06:00 0°C° 0 mm 3 mps 732 mmHg 97%
    07:00 0°C° 0 mm 3 mps 732 mmHg 97%
    08:00 +1°C° 0 mm 2 mps 733 mmHg 96%
    09:00 +2°C° 0 mm 2 mps 733 mmHg 94%
    10:00 +2°C° 0 mm 2 mps 733 mmHg 91%
    11:00 +3°C° 0 mm 2 mps 733 mmHg 88%
    12:00 +3°C° 0 mm 2 mps 733 mmHg 89%
    13:00 +2°C° 0 mm 3 mps 733 mmHg 89%
    14:00 +3°C° 0 mm 3 mps 733 mmHg 90%
    15:00 +3°C° 0 mm 3 mps 733 mmHg 91%
    16:00 +3°C° 0 mm 3 mps 733 mmHg 93%
    17:00 +3°C° 0 mm 3 mps 733 mmHg 95%
    18:00 +2°C° 0 mm 3 mps 733 mmHg 94%
    19:00 +2°C° 0 mm 3 mps 733 mmHg 93%
    20:00 +1°C° 0 mm 4 mps 733 mmHg 93%
    21:00 +1°C° 0 mm 4 mps 732 mmHg 91%
    22:00 +1°C° 0 mm 4 mps 732 mmHg 89%
    23:00 +2°C° 0 mm 5 mps 732 mmHg 87%

    2 February, Sunday

    Time Temperature Precipitation Wind Pressure Humidity
    00:00 +2°C° 0 mm 5 mps 731 mmHg 86%
    01:00 +2°C° 0 mm 5 mps 731 mmHg 86%
    02:00 +2°C° 0 mm 6 mps 731 mmHg 85%
    03:00 +2°C° 0 mm 6 mps 730 mmHg 84%
    04:00 +2°C° 0 mm 6 mps 730 mmHg 82%
    05:00 +3°C° 0 mm 6 mps 730 mmHg 81%
    06:00 +3°C° 0 mm 6 mps 730 mmHg 85%
    07:00 +3°C° 0 mm 6 mps 730 mmHg 88%
    08:00 +3°C° 0 mm 6 mps 730 mmHg 92%
    09:00 +3°C° 0.2 mm 5 mps 730 mmHg 92%
    10:00 +5°C° 0.2 mm 5 mps 730 mmHg 92%
    11:00 +5°C° 0.2 mm 5 mps 730 mmHg 92%
    12:00 +5°C° 0.2 mm 5 mps 731 mmHg 87%
    13:00 +4°C° 0.2 mm 6 mps 732 mmHg 82%
    14:00 +4°C° 0.2 mm 6 mps 732 mmHg 76%
    15:00 +5°C° 0 mm 5 mps 732 mmHg 76%
    16:00 +3°C° 0 mm 5 mps 733 mmHg 75%
    17:00 +4°C° 0 mm 4 mps 733 mmHg 75%
    18:00 +3°C° 0 mm 4 mps 734 mmHg 77%
    19:00 +3°C° 0 mm 4 mps 734 mmHg 78%
    20:00 +1°C° 0 mm 4 mps 734 mmHg 79%
    21:00 +1°C° 0 mm 5 mps 734 mmHg 82%
    22:00 +1°C° 0 mm 5 mps 735 mmHg 84%
    23:00 +1°C° 0 mm 5 mps 735 mmHg 87%

    3 February, Monday

    Time Temperature Precipitation Wind Pressure Humidity
    00:00 +1°C° 0.1 mm 6 mps 735 mmHg 86%
    01:00 +1°C° 0.1 mm 6 mps 735 mmHg 85%
    02:00 +1°C° 0.1 mm 6 mps 735 mmHg 85%
    03:00 +1°C° 0 mm 6 mps 735 mmHg 84%
    04:00 +1°C° 0 mm 6 mps 734 mmHg 83%
    05:00 -1°C° 0 mm 6 mps 734 mmHg 83%
    06:00 0°C° 0 mm 5 mps 734 mmHg 84%
    07:00 0°C° 0 mm 5 mps 734 mmHg 86%
    08:00 0°C° 0 mm 4 mps 734 mmHg 88%
    09:00 0°C° 0 mm 5 mps 734 mmHg 88%
    10:00 +1°C° 0 mm 5 mps 734 mmHg 88%
    11:00 +1°C° 0 mm 5 mps 734 mmHg 88%
    12:00 +1°C° 0.1 mm 5 mps 734 mmHg 90%
    13:00 +1°C° 0.1 mm 5 mps 733 mmHg 92%
    14:00 +1°C° 0.1 mm 4 mps 733 mmHg 94%
    15:00 +1°C° 0.5 mm 4 mps 733 mmHg 95%
    16:00 +1°C° 0.5 mm 4 mps 733 mmHg 96%
    17:00 +2°C° 0.5 mm 3 mps 733 mmHg 97%
    18:00 +2°C° 0 mm 3 mps 733 mmHg 96%
    19:00 +2°C° 0 mm 3 mps 734 mmHg 95%
    20:00 +1°C° 0 mm 4 mps 734 mmHg 94%
    21:00 +1°C° 0 mm 4 mps 735 mmHg 93%
    22:00 +1°C° 0 mm 4 mps 735 mmHg 93%
    23:00 0°C° 0 mm 4 mps 736 mmHg 92%
    Show more